Probability
0 0 0 0 0 0 0 0 0 0 0 0 0 0 0 0 0 0 0 0 0 0 0 0 0 0 0 0 0 0 0 0 0 0 0 0 0 0 0 0 0 0 0 0
0 0 0 0 0 0 0 0 0 0 0 0 0 0 0 0 0 0 0 0 0 0 0 0 0 0 0 0 0 0 0 0 0 0 0 0 0 0 0 0 0 0 0 0
0 0 0 0 0 0 0 0 0 0 0 0 0 0 0 0 0 0 0 0 0 0 0 0 0 0 0 0 0 0 0 0 0 0 0 0 0 0 0 0 0 0 0 0
0 0 0 0 0 0 0 0 0 0 0 0 0 0 0 0 0 0 0 0 0 0 0 0 0 0 0 0 0 0 0 0 0 0 0 0 0 0 0 0 0 0 0 0
0 0 0 0 0 0 0 0 0 0 0 0 0 0 0 0 0 0 0 0 0 0 0 0 0 0 0 0 0 0 0 0 0 0 0 0 0 0 0 0 0 0 0 0
0 0 0 0 0 0 0 0 0 0 0 0 0 0 0 0 0 0 0 0 0 0 0 0 0 0 0 0 0 0 0 0 0 0 0 0 0 0 0 0 0 0 0 0
0 0 0 0 0 0 0 0 0 0 0 0 0 0 0 0 0 0 0 0 0 0 0 0 0 0 0 0 0 0 0 0 0 0 0 0 0 0 0 0 0 0 0 0
0 0 0 0 0 0 0 0 0 0 0 0 0 0 0 0 0 0 0 0 0 0 0 0 0 0 0 0 0 0 0 0 0 0 0 0 0 0 0 0 0 0 0 0
0 0 0 0 0 0 0 0 0 0 0 0 0 0 0 0 0 0 0 0 0 0 0 0 0 0 0 0 0 0 0 0 0 0 0 0 0 0 0 0 0 0 0 0
0 0 0 0 0 0 0 0 0 0 0 0 0 0 0 0 0 0 0 0 0 0 0 0 0 0 0 0 0 0 0 0 0 0 0 0 0 0 0 0 0 0 0 0
0 0 0 0 0 0 0 0 0 0 0 0 0 0 0 0 0 0 0 0 0 0 0 0 0 0 0 0 0 0 0 0 0 0 0 0 0 0 0 0 0 0 0 0
0 0 0 0 0 0 0 0 0 0 0 0 0 0 0 0 0 0 0 0 0 0 0 0 0 0 0 0 0 0 0 0 0 0 0 0 0 0 0 0 0 0 0 0
0 0 0 0 0 0 0 0 0 0 0 0 0 0 0 0 0 0 0 0 0 0 0 0 0 0 0 0 0 0 0 0 0 0 0 0 0 0 0 0 0 0 0 0
0 0 0 0 0 0 0 0 0 0 0 0 0 0 0 0 0 0 0 0 0 0 0 0 0 0 0 0 0 0 0 0 0 0 0 0 0 0 0 0 0 0 0 0
0 0 0 0 0 0 0 0 0 0 0 0 0 0 0 0 0 0 0 0 0 0 0 0 0 0 0 0 0 0 0 0 0 0 0 0 0 0 0 0 0 0 0 0
0 0 0 0 0 0 0 0 0 0 0 0 0 0 0 0 0 0 0 0 0 0 0 0 0 0 0 0 0 0 0 0 0 0 0 0 0 0 0 0 0 0 0 0
0 0 0 0 0 0 0 0 0 0 0 0 0 0 0 0 0 0 0 0 0 0 0 0 0 0 0 0 0 0 0 0 0 0 0 0 0 0 0 0 0 0 0 0
0 0 0 0 0 0 0 0 0 0 0 0 0 0 0 0 0 0 0 0 0 0 0 0 0 0 0 0 0 0 0 0 0 0 0 0 0 0 0 0 0 0 0 0
0 0 0 0 0 0 0 0 0 0 0 0 0 0 0 0 0 0 0 0 0 0 0 0 0 0 0 0 0 0 0 0 0 0 0 0 0 0 0 0 0 0 0 0
0 0 0 0 0 0 0 0 0 0 0 0 0 0 0 0 0 0 0 0 0 0 0 0 0 0 0 0 0 0 0 0 0 0 0 0 0 0 0 0 0 0 0 0
0 0 0 0 0 0 0 0 0 0 0 0 0 0 0 0 0 0 0 0 0 0 0 0 0 0 0 0 0 0 0 0 0 0 0 0 0 0 0 0 0 0 0 0
0 0 0 0 0 0 0 0 0 0 0 0 0 0 0 0 0 0 0 0 0 0 0 0 0 0 0 0 0 0 0 0 0 0 0 0 0 0 0 0 0 0 0 0
0 0 0 0 0 0 0 0 0 0 0 0 0 0 0 0 0 0 0 0 0 0 0 0 0 0 0 0 0 0 0 0 0 0 0 0 0 0 0 0 0 0 0 0
0 0 0 0 0 0 0 0 0 0 0 0 0 0 0 0 0 0 0 0 0 0 0 0 0 0 0 0 0 0 0 0 0 0 0 0 0 0 0 0 0 0 0 0
0 0 0 0 0 0 0 0 0 0 0 0 0 0 0 0 0 0 0 0 0 0 0 0 0 0 0 0 0 0 0 0 0 0 0 0 0 0 0 0 0 0 0 0
0 0 0 0 0 0 0 0 0 0 0 0 0 0 0 0 0 0 0 0 0 0 0 0 0 0 0 0 0 0 0 0 0 0 0 0 0 0 0 0 0 0 0 0
0 0 0 0 0 0 0 0 0 0 0 0 0 0 0 0 0 0 0 0 0 0 0 0 0 0 0 0 0 0 0 0 0 0 0 0 0 0 0 0 0 0 0 0
Height
5841 5839 5836 5833 5830 5826 5822 5817 5812 5807 5801 5796 5789 5782 5775 5767 5759 5751 5741 5732 5722 5712 5704 5696 5688 5679 5669 5658 5646 5634 5622 5610 5599 5589 5580 5574 5571 5570 5570 5572 5574 5578 5582 5587
5840 5837 5833 5830 5826 5823 5818 5813 5808 5802 5797 5791 5783 5774 5766 5758 5750 5741 5732 5722 5712 5703 5695 5687 5677 5668 5656 5644 5631 5617 5604 5592 5579 5568 5558 5551 5546 5545 5546 5549 5552 5556 5562 5568
5837 5834 5832 5828 5824 5819 5815 5810 5804 5797 5793 5786 5779 5769 5759 5751 5743 5732 5722 5712 5703 5695 5686 5677 5667 5656 5643 5630 5615 5601 5587 5574 5561 5548 5537 5529 5524 5522 5524 5527 5531 5537 5543 5550
5834 5832 5827 5826 5820 5815 5811 5806 5799 5793 5786 5779 5772 5764 5753 5743 5733 5724 5714 5705 5695 5686 5677 5667 5656 5644 5630 5616 5600 5586 5572 5557 5542 5529 5517 5509 5505 5503 5504 5507 5512 5518 5526 5534
5831 5827 5824 5821 5816 5810 5806 5801 5795 5788 5781 5773 5766 5760 5750 5740 5729 5718 5707 5696 5686 5677 5667 5658 5646 5633 5619 5604 5588 5573 5558 5543 5526 5511 5500 5493 5488 5486 5487 5490 5496 5502 5511 5519
5827 5823 5820 5818 5812 5807 5802 5796 5790 5783 5775 5767 5759 5751 5744 5733 5722 5710 5699 5688 5679 5669 5660 5649 5638 5624 5609 5593 5578 5563 5547 5530 5513 5498 5487 5480 5475 5473 5473 5477 5482 5489 5497 5506
5823 5820 5818 5814 5809 5803 5798 5793 5785 5778 5771 5762 5752 5743 5733 5723 5713 5702 5692 5682 5673 5663 5653 5642 5630 5616 5600 5584 5569 5553 5537 5520 5503 5489 5479 5471 5466 5464 5464 5467 5472 5478 5486 5495
5819 5816 5815 5809 5804 5800 5795 5788 5781 5774 5766 5758 5749 5739 5729 5718 5708 5697 5687 5677 5667 5658 5647 5635 5623 5609 5593 5577 5562 5546 5530 5513 5497 5484 5473 5465 5460 5458 5457 5459 5464 5470 5477 5485
5816 5814 5810 5805 5800 5795 5790 5783 5777 5769 5762 5753 5744 5734 5724 5713 5703 5693 5682 5672 5662 5652 5641 5630 5617 5603 5588 5572 5557 5542 5526 5510 5495 5482 5471 5463 5458 5455 5454 5455 5459 5464 5471 5478
5811 5808 5805 5801 5796 5791 5784 5778 5771 5764 5756 5747 5738 5728 5718 5709 5699 5689 5678 5668 5658 5647 5637 5625 5613 5599 5584 5569 5554 5539 5524 5509 5495 5483 5472 5464 5459 5455 5454 5454 5457 5461 5466 5473
5807 5804 5800 5796 5791 5785 5779 5773 5766 5758 5750 5742 5733 5724 5714 5705 5695 5685 5675 5664 5653 5643 5633 5622 5610 5596 5582 5567 5553 5539 5525 5511 5498 5486 5475 5467 5461 5457 5456 5455 5456 5459 5464 5470
5803 5799 5795 5791 5785 5780 5774 5768 5761 5753 5746 5737 5728 5720 5711 5701 5691 5681 5671 5661 5650 5640 5629 5619 5607 5595 5581 5567 5554 5540 5528 5515 5502 5491 5480 5472 5465 5461 5459 5458 5458 5460 5464 5469
5798 5794 5790 5785 5780 5775 5769 5763 5756 5749 5741 5733 5725 5715 5706 5696 5687 5677 5667 5657 5647 5637 5627 5616 5605 5594 5582 5568 5555 5543 5531 5519 5507 5496 5486 5478 5471 5466 5464 5462 5462 5463 5466 5470
5793 5789 5785 5780 5776 5770 5764 5758 5751 5744 5736 5728 5720 5711 5701 5692 5683 5674 5664 5654 5644 5634 5624 5614 5604 5593 5582 5570 5558 5546 5534 5523 5512 5502 5493 5484 5477 5473 5469 5467 5467 5467 5469 5472
5788 5784 5780 5775 5770 5765 5759 5753 5746 5739 5731 5723 5715 5706 5698 5689 5680 5670 5661 5651 5641 5631 5622 5613 5603 5594 5583 5572 5561 5549 5538 5528 5517 5508 5499 5491 5484 5479 5475 5473 5472 5472 5473 5475
5783 5779 5775 5770 5765 5759 5753 5747 5740 5733 5726 5719 5711 5703 5694 5685 5675 5666 5657 5647 5638 5629 5620 5612 5603 5594 5584 5574 5564 5553 5543 5533 5523 5514 5505 5498 5491 5485 5481 5478 5477 5476 5477 5479
5777 5773 5768 5764 5759 5753 5747 5740 5734 5728 5720 5713 5705 5697 5689 5681 5672 5663 5654 5644 5635 5627 5618 5610 5602 5594 5585 5576 5567 5557 5548 5538 5529 5520 5512 5504 5497 5491 5486 5483 5481 5480 5480 5481
5770 5766 5762 5757 5752 5746 5740 5734 5728 5721 5714 5707 5699 5691 5683 5676 5668 5660 5651 5643 5633 5624 5616 5608 5601 5594 5586 5578 5570 5561 5553 5544 5535 5526 5518 5511 5504 5497 5492 5488 5485 5484 5484 5484
5762 5758 5754 5749 5743 5738 5733 5727 5722 5715 5708 5700 5693 5685 5678 5670 5662 5654 5647 5639 5632 5623 5615 5607 5600 5594 5587 5580 5573 5565 5557 5549 5541 5533 5525 5518 5511 5504 5499 5494 5490 5488 5487 5487
5754 5750 5745 5740 5735 5730 5726 5721 5715 5709 5702 5694 5687 5679 5672 5665 5658 5651 5643 5636 5628 5621 5614 5606 5599 5593 5587 5582 5575 5568 5561 5554 5546 5539 5532 5525 5518 5512 5506 5501 5497 5494 5492 5492
5744 5740 5736 5732 5727 5723 5718 5714 5709 5703 5696 5688 5681 5674 5667 5660 5654 5647 5640 5633 5626 5618 5611 5604 5598 5593 5588 5583 5577 5571 5565 5558 5551 5545 5539 5532 5526 5521 5515 5510 5505 5502 5499 5498
5733 5730 5726 5723 5719 5715 5710 5706 5702 5696 5690 5683 5676 5669 5662 5656 5650 5643 5636 5630 5623 5616 5610 5603 5597 5592 5587 5583 5578 5573 5568 5562 5556 5550 5545 5539 5534 5529 5524 5520 5515 5512 5509 5507
5722 5719 5717 5714 5710 5706 5702 5698 5694 5689 5683 5677 5670 5664 5658 5652 5646 5640 5634 5627 5620 5614 5608 5601 5595 5590 5586 5583 5579 5575 5571 5566 5561 5556 5551 5546 5541 5537 5533 5529 5525 5522 5519 5518
5711 5708 5706 5704 5701 5697 5693 5689 5686 5682 5677 5671 5665 5659 5654 5648 5642 5636 5630 5623 5617 5611 5606 5600 5594 5589 5585 5582 5579 5576 5573 5569 5565 5561 5557 5553 5549 5545 5541 5538 5535 5532 5530 5528
5699 5697 5695 5693 5690 5687 5684 5680 5677 5673 5669 5665 5660 5654 5649 5644 5638 5632 5626 5620 5614 5609 5603 5598 5593 5588 5584 5581 5578 5576 5574 5571 5568 5565 5562 5559 5555 5552 5549 5546 5544 5542 5540 5538
5685 5684 5683 5682 5680 5677 5674 5671 5668 5664 5661 5658 5653 5648 5644 5639 5633 5628 5622 5616 5611 5606 5601 5596 5591 5586 5582 5579 5577 5575 5573 5572 5570 5568 5565 5563 5560 5558 5556 5554 5552 5551 5549 5548
5672 5671 5671 5670 5668 5666 5664 5661 5659 5656 5653 5650 5646 5642 5638 5633 5629 5624 5618 5613 5607 5603 5598 5593 5588 5584 5580 5577 5575 5573 5572 5571 5570 5569 5567 5566 5564 5563 5561 5560 5559 5558 5557 5556
Wind_Speed
12 11 13 16 19 22 26 28 29 29 29 30 32 36 40 43 45 47 49 50 49 46 44 45 47 51 55 59 63 65 66 66 66 66 65 62 59 55 53 52 51 51 51 52
14 14 16 19 22 25 28 29 29 29 30 32 35 40 43 45 47 49 51 50 46 43 43 45 49 53 58 62 64 66 65 64 63 62 62 60 56 52 49 48 48 49 49 50
15 16 17 21 24 27 28 30 31 32 33 35 36 41 45 46 48 51 52 48 44 43 44 47 51 56 60 64 65 63 62 62 62 61 58 55 51 48 45 43 44 46 46 47
17 18 21 24 26 28 30 31 33 34 36 38 39 42 45 48 50 52 51 46 43 44 46 49 53 57 61 64 63 61 60 61 61 58 53 48 44 41 40 39 40 42 45 45
20 21 23 26 28 30 32 32 34 36 38 40 41 42 43 45 48 50 50 46 45 46 48 51 54 58 61 62 60 59 60 60 59 54 48 42 38 35 34 35 36 39 43 44
22 23 25 26 28 31 33 34 36 38 41 43 44 45 44 46 49 51 51 48 46 47 49 51 55 58 61 60 58 57 58 59 55 50 43 37 32 28 28 30 32 35 39 42
23 23 23 24 28 31 33 35 37 40 42 44 46 48 49 49 51 53 52 48 46 47 48 51 55 58 60 58 56 57 57 57 52 45 38 32 26 22 22 25 28 31 35 38
23 22 23 25 28 31 32 34 37 40 42 44 45 47 49 49 51 52 51 48 46 46 48 51 55 58 59 57 55 56 55 54 50 43 35 28 22 18 16 19 24 28 31 34
22 22 24 26 29 31 32 35 38 40 43 44 45 47 49 49 51 52 51 48 46 45 47 50 54 58 58 56 55 55 54 52 48 42 34 26 20 14 11 14 19 24 28 31
22 23 25 27 29 31 33 36 39 41 43 45 46 48 49 50 50 51 51 48 45 45 46 49 53 56 56 55 54 54 53 51 47 41 34 27 20 13 8 7 13 19 24 27
22 24 26 28 30 32 35 37 39 41 43 45 46 47 49 49 50 50 50 48 46 44 45 48 51 53 54 54 52 52 52 50 46 41 35 28 21 14 8 4 6 13 19 24
23 25 27 29 31 33 35 37 39 41 43 44 45 47 48 49 49 50 49 48 45 44 44 46 49 51 52 52 51 50 50 49 45 41 36 30 22 15 9 4 2 8 15 20
24 26 28 30 31 33 35 37 39 40 42 43 45 46 48 49 49 49 49 48 45 42 42 44 47 49 50 50 49 49 48 47 44 40 36 31 25 18 12 7 2 5 11 17
26 28 29 30 32 34 36 38 39 40 42 43 45 46 48 48 48 48 48 47 45 42 41 42 44 47 48 48 48 47 46 45 43 40 36 31 26 20 15 10 5 4 8 14
28 29 31 32 34 36 37 38 39 41 43 44 45 46 47 48 47 47 47 46 45 42 40 40 41 44 45 46 46 45 44 43 41 39 36 31 27 21 16 12 7 4 6 11
30 31 33 34 36 38 39 39 40 42 43 45 45 46 47 47 47 47 46 45 44 42 38 37 38 41 42 43 43 43 42 40 39 38 35 32 27 23 17 13 9 5 5 9
33 34 35 37 38 39 40 39 40 43 45 46 47 47 47 46 45 45 45 44 44 42 38 36 36 37 39 40 40 40 40 39 38 36 35 32 28 24 19 14 10 6 5 8
36 37 38 38 39 39 40 40 41 44 46 47 48 48 47 45 43 43 42 42 42 41 39 35 33 34 35 37 37 37 36 36 36 35 34 32 29 26 22 17 12 8 6 7
37 38 39 39 38 38 39 40 42 45 46 47 47 48 47 44 42 42 42 41 40 39 37 33 31 31 32 33 34 33 33 33 34 34 33 31 30 27 24 20 15 12 8 7
38 39 40 39 38 37 38 39 42 45 46 47 47 46 45 43 41 40 41 40 39 38 36 33 29 28 28 29 30 30 30 30 31 32 32 30 28 27 26 23 19 16 13 11
40 40 39 38 37 37 38 40 42 46 47 47 46 45 43 42 41 40 39 39 38 37 36 33 29 26 25 25 26 27 27 28 28 29 30 29 27 26 26 25 23 20 19 17
41 40 39 38 37 37 38 40 43 46 48 47 46 45 43 42 40 39 39 37 36 35 34 32 28 24 22 21 22 23 24 25 26 26 26 27 26 25 25 25 25 23 22 21
41 41 39 38 37 38 39 41 42 45 46 46 45 44 43 42 39 37 37 36 35 34 33 31 28 24 20 18 18 19 19 21 22 23 23 24 25 24 23 23 23 23 23 23
41 40 40 38 37 38 40 41 42 43 44 44 43 43 42 41 40 38 36 35 34 32 31 30 27 23 19 16 15 15 15 16 18 19 20 21 22 23 22 22 21 22 22 23
42 41 40 39 38 39 41 42 42 42 42 42 42 41 40 39 38 37 36 35 33 31 30 29 26 23 18 15 12 11 11 12 13 14 16 17 18 19 20 21 21 20 20 20
45 43 43 42 41 41 42 42 41 41 41 41 40 40 39 38 37 37 36 34 32 31 29 28 26 23 18 14 11 10 9 8 9 10 11 12 14 15 15 17 18 19 19 18
45 44 42 42 42 43 42 40 40 40 40 40 39 38 37 36 36 36 35 34 32 30 28 27 25 23 19 15 11 9 8 7 7 7 7 8 9 9 10 11 13 14 15 16
Wind_Direction
337 338 338 338 337 338 340 338 335 333 331 330 329 327 327 327 328 328 327 327 325 322 320 319 319 320 319 317 315 313 311 309 306 304 301 296 290 282 273 264 257 251 248 246
326 332 338 338 338 339 341 339 337 336 336 335 333 332 331 331 330 330 330 329 326 324 322 322 322 321 321 319 318 315 313 312 309 306 302 297 291 282 273 263 255 249 245 242
322 328 333 335 337 338 340 339 340 340 339 338 337 336 332 332 333 333 333 331 328 327 326 325 325 324 324 323 321 319 317 316 313 309 303 297 290 282 273 262 254 247 241 238
321 329 335 334 334 336 340 341 341 340 340 341 341 339 335 335 335 335 334 333 331 330 330 329 328 328 327 326 324 322 321 321 318 314 307 299 290 282 271 260 252 243 236 234
324 330 332 332 332 334 339 342 341 341 342 342 341 341 338 336 336 336 337 336 335 334 333 332 332 332 331 330 328 326 326 325 323 318 312 304 294 281 270 257 247 239 231 230
323 328 329 329 331 334 338 340 341 342 343 342 342 342 341 340 340 341 341 339 338 336 335 335 335 335 335 335 332 331 331 331 328 324 319 311 300 285 269 254 243 236 229 228
320 324 325 327 331 336 336 338 340 341 342 343 343 343 343 343 343 343 343 341 339 337 336 337 338 339 340 340 338 337 337 337 336 332 327 321 308 290 270 250 240 234 228 226
320 324 326 329 332 333 334 335 338 340 342 343 344 344 345 344 343 344 344 342 340 339 339 340 342 343 345 345 344 344 344 344 344 342 337 332 320 301 276 249 236 227 223 223
322 325 325 328 329 330 331 333 336 338 341 343 345 346 346 346 345 344 345 344 342 341 342 343 344 346 349 349 349 350 350 350 351 350 347 344 338 323 289 250 231 223 220 221
320 321 322 324 326 329 331 333 334 337 340 343 345 347 348 347 345 345 346 345 344 343 344 345 347 349 352 353 354 355 356 356 357 358 358 355 352 345 321 262 232 224 219 216
320 320 322 323 326 329 331 332 333 337 340 343 345 346 347 347 346 346 346 347 345 345 345 347 349 351 354 356 357 358 360 1 3 4 5 4 3 0 352 307 234 216 210 207
322 323 324 326 328 330 330 330 333 337 340 343 344 345 346 347 347 347 347 347 347 346 346 348 351 353 355 358 359 360 2 4 5 7 10 10 11 12 12 5 211 197 198 200
322 323 325 327 328 329 328 330 333 336 338 341 343 344 345 346 347 347 347 348 348 346 347 349 352 354 357 359 0 1 3 6 8 10 12 15 19 23 26 28 69 171 185 190
321 323 324 326 327 327 327 329 332 334 336 339 341 343 344 345 346 347 347 348 348 348 348 350 352 354 357 360 2 3 5 7 10 13 15 19 23 27 32 39 58 124 171 181
319 321 323 324 325 325 326 328 330 333 335 336 338 340 342 343 344 346 346 347 349 349 348 349 352 354 357 360 2 4 6 9 11 14 17 20 24 27 32 40 54 94 152 171
316 319 321 322 322 323 324 326 329 331 333 333 335 338 340 341 343 345 346 346 348 349 348 349 352 354 356 360 2 5 9 11 13 16 18 21 24 27 31 38 51 78 139 168
313 316 318 319 320 321 322 324 327 329 330 331 333 335 338 340 342 344 345 345 346 348 348 349 351 353 355 359 2 6 9 12 14 17 19 22 25 28 31 35 45 68 118 157
310 314 316 318 319 318 319 322 325 327 329 330 332 334 336 338 340 343 344 345 345 347 348 348 349 352 355 358 1 4 9 13 15 18 20 23 27 31 33 36 45 61 96 144
306 310 312 315 315 314 316 320 324 327 329 331 332 334 336 337 340 342 343 345 345 346 347 346 347 350 354 357 359 2 7 13 17 19 21 25 29 33 36 40 47 59 86 121
302 305 309 311 311 310 313 319 325 329 331 332 333 335 336 338 340 342 342 342 344 345 347 347 347 349 352 355 357 1 6 12 16 20 22 25 30 34 39 44 50 59 73 95
299 303 306 308 308 308 310 316 323 329 333 334 336 337 338 339 340 341 342 341 342 344 346 347 346 347 349 353 356 0 6 11 16 21 25 28 32 36 40 46 53 62 73 86
297 300 303 306 307 306 307 312 319 326 332 334 336 338 339 341 341 340 340 341 341 343 345 346 345 345 347 350 355 360 6 12 16 21 26 30 33 37 41 47 54 63 74 84
295 297 300 302 303 304 304 307 315 322 328 331 334 337 339 340 340 340 339 340 340 342 343 345 345 343 343 347 352 357 4 10 16 22 27 31 35 39 44 48 54 63 74 82
290 293 297 297 299 301 300 303 311 318 323 326 330 333 337 339 339 339 339 339 339 340 342 343 343 342 340 342 347 353 359 7 14 20 27 32 37 42 48 52 57 66 76 83
283 286 291 293 295 295 296 301 307 314 318 321 325 329 333 337 338 338 338 339 339 338 339 341 342 341 338 336 338 344 351 359 8 16 24 32 39 46 52 55 60 66 75 85
281 282 284 286 289 290 293 299 305 309 313 316 320 324 329 333 335 336 337 338 338 337 337 338 339 338 335 330 325 327 334 343 354 6 17 28 38 47 53 57 62 68 75 83
279 279 280 284 286 288 292 297 302 305 308 311 315 319 324 328 332 333 334 335 336 336 335 335 337 337 333 326 315 308 310 319 329 341 358 14 29 40 49 58 65 71 77 84